[[{"header":{"parameterUnit":"m.s-1","parameterCategory":1,"la1":30.2991,"la2":30.254,"lo1":-89.0895,"lo2":-89.0444,"dy":0.0017,"dx":0.0017,"nx":28,"ny":28,"refTime":"2023-09-02T03:00:00:Z","depth":0,"parameterNumber":2,"parameterNumberName":"U-component_of_WINDS"},"data":[0,0,0,0,0,0,0,0,0,0,0,0,0,0,0,0,0,0,0,0,0,0,0,0,0,0,0,0,0,0,0,0,0,0,0,0,0,0,0,0,0,0,0,0,0,0,0,0,0,0,0,0,0,0,0,0,0,0,-5.3282,-5.3282,0,-5.3293,-5.3293,-5.3293,-5.3153,-5.3149,-5.3146,-5.3142,-5.3152,-5.3156,-5.3159,0,0,0,0,0,0,0,0,0,0,0,0,0,-5.314,-5.3143,-5.3282,-5.3282,-5.3282,-5.3293,-5.3293,-5.3293,-5.3154,-5.3149,-5.3145,-5.314,-5.3151,-5.3155,-5.316,0,0,0,0,0,0,0,0,0,0,0,0,0,-5.3181,-5.3144,-5.3282,-5.3214,-5.3208,-5.3293,-5.3293,-5.3293,-5.3155,-5.3149,-5.3143,-5.3138,-5.3149,-5.3155,-5.316,-5.331,0,0,-5.3178,-5.318,0,0,0,0,0,0,0,0,-5.3179,-5.3187,-5.3224,-5.3219,-5.3212,-5.3216,-5.3246,-5.3299,-5.3156,-5.3175,-5.3142,-5.3135,-5.3178,-5.3181,-5.3195,-5.331,-5.3311,-5.3178,-5.3182,-5.3184,-5.3186,0,0,0,0,0,0,0,-5.3176,-5.3185,-5.3286,-5.3225,-5.3218,-5.3183,-5.3182,-5.3256,-5.3208,-5.3173,-5.3163,-5.3166,-5.3173,-5.319,-5.3194,-5.3311,-5.3178,-5.3183,-5.3187,-5.3189,-5.3549,-5.3555,0,0,0,0,0,0,-5.3183,-5.3184,-5.3286,-5.3286,-5.3181,-5.319,-5.319,-5.3221,-5.3207,-5.32,-5.3171,-5.316,-5.3183,-5.3188,-5.3194,-5.3367,-5.3184,-5.319,-5.3193,-5.3543,-5.355,-5.3557,0,0,0,0,0,0,-5.318,-5.3193,-5.3285,-5.3232,-5.3242,-5.3199,-5.3235,-5.3224,-5.324,-5.3206,-5.3196,-5.3197,-5.3179,-5.3186,-5.3282,-5.3366,-5.3192,-5.3197,-5.3535,-5.3545,-5.3553,-5.3716,0,0,0,0,0,0,-5.3177,-5.3193,-5.325,-5.3235,-5.3245,-5.3374,-5.324,-5.3228,-5.3251,-5.3236,-5.3227,-5.322,-5.3175,-5.3274,-5.3288,-5.337,-5.3202,-5.3528,-5.354,-5.3551,-5.3703,-5.3729,-5.3752,0,0,0,0,0,-5.3172,-5.3295,-5.3253,-5.3266,-5.3315,-5.3379,-5.3385,-5.333,-5.3258,-5.3314,-5.3292,-5.3221,-5.3355,-5.3285,-5.3299,-5.3385,-5.3522,-5.3536,-5.355,-5.3692,-5.3724,-5.3752,0,0,0,0,0,0,-5.332,-5.3292,-5.3245,-5.3367,-5.3377,-5.3355,-5.3424,-5.3366,-5.3396,-5.3381,-5.3312,-5.3311,-5.3418,-5.3411,-5.3334,-5.3529,-5.3426,-5.3443,-5.3529,-5.356,-5.3584,-5.3582,-5.3207,0,0,0,0,0,-5.3367,-5.3422,-5.3394,-5.3504,-5.3511,-5.3468,-5.3494,-5.3451,-5.3458,-5.3461,-5.3446,-5.3455,-5.3499,-5.3529,-5.3568,-5.3702,-5.3697,-5.3768,-5.3793,-5.3813,-5.3828,-5.3897,-5.3928,-5.3602,-5.3602,-5.3602,0,0,-5.3464,-5.3455,-5.3494,-5.3534,-5.3536,-5.3594,-5.3472,-5.3538,-5.358,-5.3471,-5.356,-5.355,-5.3555,-5.3671,-5.3721,-5.3668,-5.3918,-5.3831,-5.3847,-5.3851,-5.3915,-5.3946,-5.3973,-5.3611,-5.361,-5.3608,0,0,-5.367,-5.367,-5.3761,-5.3766,-5.3771,-5.3742,-5.3764,-5.3752,-5.3741,-5.383,-5.3749,-5.3798,-5.3876,-5.3883,-5.3896,-5.4107,-5.4042,-5.4122,-5.425,-5.4318,-5.4344,-5.4366,-5.444,-5.4467,-5.4137,-5.4138,-5.4138,0,-5.3789,-5.3873,-5.3815,-5.3887,-5.3906,-5.3811,-5.3902,-5.391,-5.3928,-5.3943,-5.3885,-5.398,-5.3977,-5.4093,-5.4144,-5.4159,-5.4181,-5.4121,-5.4345,-5.4367,-5.4387,-5.4456,-5.4484,-5.4147,-5.4146,-5.4145,-5.4144,0,-5.4019,-5.4079,-5.4152,-5.4172,-5.42,-5.4282,-5.4235,-5.427,-5.4226,-5.4203,-5.4294,-5.4288,-5.4323,-5.4348,-5.4305,-5.4458,-5.4425,-5.4357,-5.4252,-5.4429,-5.4492,-5.4519,-5.4161,-5.4157,-5.4155,-5.4152,0,0,-5.4316,-5.4304,-5.4332,-5.4339,-5.4339,-5.4384,-5.4461,-5.4496,-5.4527,-5.4544,-5.4606,-5.4675,-5.4612,-5.4628,-5.4586,-5.4646,-5.4812,-5.4571,-5.457,-5.4614,-5.4977,-5.5026,-5.5058,-5.477,-5.4775,-5.4778,-5.4976,0,-5.4515,-5.4646,-5.4596,-5.473,-5.4784,-5.4696,-5.4763,-5.477,-5.4751,-5.4793,-5.4772,-5.4821,-5.4736,-5.4745,-5.4801,-5.478,-5.4883,-5.4765,-5.4825,-5.4828,-5.4824,-5.5092,-5.5144,-5.533,-5.5001,-5.5005,-5.5008,0,-5.4763,-5.479,-5.493,-5.4921,-5.4941,-5.5003,-5.5031,-5.5073,-5.508,-5.5061,-5.508,-5.5025,-5.5099,-5.4997,-5.5098,-5.5019,-5.5041,-5.5034,-5.504,-5.5041,-5.4927,-5.5098,-5.5389,-5.5416,-5.5047,-5.5044,-5.5041,0,-5.4963,-5.5035,-5.5127,-5.5137,-5.5129,-5.5174,-5.5172,-5.5173,-5.5198,-5.5223,-5.5237,-5.5271,-5.5289,-5.5316,-5.5271,-5.5201,-5.5379,-5.5272,-5.5364,-5.5366,-5.5403,-5.5401,-5.5699,-5.5423,-5.5422,-5.5422,-5.5421,0,-5.5189,-5.5277,-5.5217,-5.5274,-5.537,-5.5313,-5.541,-5.5399,-5.5401,-5.5453,-5.538,-5.5431,-5.5369,-5.5414,-5.538,-5.5468,-5.5478,-5.5464,-5.5453,-5.5469,-5.5471,-5.548,-5.5465,-5.5429,-5.5427,-5.5426,-5.5425,0,-5.5427,-5.539,-5.5485,-5.547,-5.5469,-5.554,-5.5527,-5.5579,-5.5555,-5.5623,-5.5635,-5.5598,-5.5648,-5.5606,-5.5654,-5.5631,-5.5748,-5.572,-5.5745,-5.5737,-5.583,-5.5821,-5.6143,-5.6181,-5.5883,-5.5886,-5.5888,0,-5.5572,-5.5638,-5.563,-5.5661,-5.5664,-5.5714,-5.5739,-5.5685,-5.5714,-5.5727,-5.5777,-5.582,-5.5851,-5.5935,-5.5912,-5.5948,-5.5919,-5.6029,-5.5923,-5.5937,-5.5917,-5.5913,-5.5919,-5.605,-5.6053,-5.6056,-5.6058,0,-5.5832,-5.5811,-5.5849,-5.5883,-5.5915,-5.5938,-5.5955,-5.5984,-5.5929,-5.5966,-5.6015,-5.604,-5.6089,-5.6133,-5.6162,-5.6159,-5.61,-5.6093,-5.6115,-5.613,-5.6142,-5.6135,-5.5801,-5.6085,-5.6082,-5.608,-5.6079,-5.6078,-5.6026,-5.608,-5.6084,-5.6129,-5.6137,-5.6155,-5.6203,-5.6186,-5.6227,-5.6262,-5.6229,-5.6289,-5.6294,-5.6327,-5.6332,-5.6378,-5.6332,-5.6365,-5.6373,-5.6382,-5.6394,-5.6137,-5.6383,-5.6383,-5.6382,-5.6381,-5.6381,0,-5.628,-5.6279,-5.6321,-5.6348,-5.6384,-5.6327,-5.6344,-5.6377,-5.6431,-5.6441,-5.6474,-5.6531,-5.6573,-5.6555,-5.6591,-5.6632,-5.6605,-5.6643,-5.6638,-5.6638,-5.6434,-5.641,-5.6664,-5.6664,-5.6664,-5.6664,-5.6664,-5.6663,-5.6417,-5.6505,-5.6485,-5.6577,-5.6574,-5.6632,-5.6647,-5.6663,-5.667,-5.6738,-5.6773,-5.6761,-5.6759,-5.6795,-5.6832,-5.6825,-5.6841,-5.6888,-5.6872,-5.6681,-5.6653,-5.6626,-5.6602,-5.6893,-5.6893,-5.7071,-5.7073,-5.7074]},{"header":{"parameterUnit":"m.s-1","parameterCategory":1,"la1":30.2991,"la2":30.254,"lo1":-89.0895,"lo2":-89.0444,"dy":0.0017,"dx":0.0017,"nx":28,"ny":28,"refTime":"2023-09-02T03:00:00:Z","depth":0,"parameterNumber":3,"parameterNumberName":"V-component_of_WINDS"},"data":[0,0,0,0,0,0,0,0,0,0,0,0,0,0,0,0,0,0,0,0,0,0,0,0,0,0,0,0,0,0,0,0,0,0,0,0,0,0,0,0,0,0,0,0,0,0,0,0,0,0,0,0,0,0,0,0,0,0,-0.2337,-0.2335,0,-0.2166,-0.2164,-0.2162,-0.2101,-0.2101,-0.2102,-0.2103,-0.192,-0.1914,-0.1909,0,0,0,0,0,0,0,0,0,0,0,0,0,-0.2596,-0.2592,-0.2337,-0.2335,-0.2333,-0.2166,-0.2164,-0.2162,-0.2101,-0.2101,-0.2102,-0.2103,-0.1921,-0.1915,-0.1908,0,0,0,0,0,0,0,0,0,0,0,0,0,-0.246,-0.2591,-0.2337,-0.2282,-0.2276,-0.2167,-0.2164,-0.2161,-0.21,-0.2101,-0.2102,-0.2103,-0.1924,-0.1916,-0.1908,-0.1838,0,0,-0.1883,-0.1879,0,0,0,0,0,0,0,0,-0.2468,-0.2451,-0.2293,-0.2286,-0.2278,-0.2156,-0.2188,-0.2053,-0.21,-0.2167,-0.2103,-0.2104,-0.1997,-0.1983,-0.1948,-0.183,-0.1822,-0.1882,-0.1877,-0.1873,-0.1871,0,0,0,0,0,0,0,-0.2478,-0.2458,-0.2269,-0.229,-0.2282,-0.2262,-0.2243,-0.2162,-0.2078,-0.2161,-0.2156,-0.2137,-0.1993,-0.1956,-0.1944,-0.1819,-0.1882,-0.1875,-0.187,-0.1867,-0.1625,-0.1623,0,0,0,0,0,0,-0.2498,-0.2466,-0.2274,-0.2264,-0.2378,-0.2256,-0.2236,-0.2194,-0.2079,-0.2063,-0.2137,-0.2135,-0.197,-0.1953,-0.1937,-0.1843,-0.1873,-0.1866,-0.1861,-0.1626,-0.1624,-0.1623,0,0,0,0,0,0,-0.2504,-0.2481,-0.2281,-0.2364,-0.2337,-0.2251,-0.2204,-0.219,-0.2154,-0.2061,-0.2044,-0.2116,-0.197,-0.1948,-0.1862,-0.1836,-0.1862,-0.1855,-0.1628,-0.1625,-0.1623,-0.1657,0,0,0,0,0,0,-0.2512,-0.2484,-0.2461,-0.2364,-0.2333,-0.2214,-0.2203,-0.2186,-0.2141,-0.2137,-0.2037,-0.2021,-0.1969,-0.1874,-0.1854,-0.1825,-0.1848,-0.163,-0.1627,-0.1624,-0.1658,-0.1656,-0.1655,0,0,0,0,0,-0.2521,-0.2477,-0.246,-0.2437,-0.2302,-0.2213,-0.2194,-0.2138,-0.2139,-0.2112,-0.205,-0.2024,-0.1842,-0.1866,-0.1842,-0.1811,-0.1631,-0.1628,-0.1624,-0.1659,-0.1657,-0.1655,0,0,0,0,0,0,-0.2573,-0.2464,-0.2444,-0.2368,-0.23,-0.2203,-0.2168,-0.2139,-0.2067,-0.2067,-0.1997,-0.1974,-0.1891,-0.1842,-0.1871,-0.1732,-0.1734,-0.1726,-0.1768,-0.1766,-0.1764,-0.1777,-0.1841,0,0,0,0,0,-0.2576,-0.2516,-0.2422,-0.2364,-0.2331,-0.2255,-0.2214,-0.2176,-0.2101,-0.2072,-0.2005,-0.193,-0.1855,-0.1808,-0.1734,-0.165,-0.1623,-0.1615,-0.1614,-0.1613,-0.1606,-0.155,-0.1543,-0.1611,-0.1611,-0.1611,0,0,-0.2581,-0.2514,-0.248,-0.2373,-0.2316,-0.2249,-0.2231,-0.2165,-0.2113,-0.2061,-0.1974,-0.1921,-0.1833,-0.1745,-0.1703,-0.1701,-0.1581,-0.1609,-0.1609,-0.1602,-0.1545,-0.1539,-0.1533,-0.1609,-0.1609,-0.161,0,0,-0.2557,-0.2502,-0.2445,-0.2387,-0.23,-0.2248,-0.2234,-0.2139,-0.2102,-0.2014,-0.1971,-0.1906,-0.1781,-0.1717,-0.1669,-0.161,-0.158,-0.1588,-0.158,-0.1525,-0.152,-0.1514,-0.1488,-0.148,-0.1581,-0.1581,-0.1581,0,-0.2574,-0.2477,-0.2419,-0.2352,-0.2302,-0.2251,-0.2188,-0.2134,-0.2027,-0.1991,-0.1991,-0.1827,-0.1765,-0.1658,-0.1642,-0.1607,-0.1583,-0.1599,-0.1526,-0.152,-0.1514,-0.1488,-0.1479,-0.1582,-0.1582,-0.1582,-0.1582,0,-0.2499,-0.2431,-0.2394,-0.2292,-0.2238,-0.2174,-0.21,-0.2052,-0.2015,-0.1962,-0.1867,-0.179,-0.1696,-0.1667,-0.1633,-0.1552,-0.1553,-0.154,-0.154,-0.151,-0.1484,-0.1474,-0.1584,-0.1584,-0.1583,-0.1583,0,0,-0.2508,-0.2369,-0.2356,-0.2306,-0.2202,-0.2146,-0.2075,-0.1985,-0.1941,-0.1867,-0.1801,-0.1692,-0.1677,-0.1622,-0.1577,-0.153,-0.148,-0.1521,-0.1518,-0.1513,-0.1379,-0.1388,-0.1378,-0.1459,-0.1457,-0.1456,-0.1385,0,-0.2467,-0.2344,-0.2284,-0.2184,-0.2116,-0.2062,-0.1999,-0.1925,-0.1871,-0.1801,-0.1739,-0.1661,-0.165,-0.1615,-0.1565,-0.1498,-0.1452,-0.1502,-0.1393,-0.139,-0.1415,-0.1365,-0.1377,-0.1314,-0.1375,-0.1373,-0.1372,0,-0.2406,-0.2331,-0.2224,-0.212,-0.209,-0.2035,-0.1942,-0.1879,-0.179,-0.1753,-0.1687,-0.1643,-0.1559,-0.1564,-0.1443,-0.1478,-0.1429,-0.1387,-0.1383,-0.137,-0.1379,-0.1347,-0.1293,-0.1283,-0.1356,-0.1358,-0.1359,0,-0.2418,-0.229,-0.2207,-0.2166,-0.2045,-0.2006,-0.1953,-0.1866,-0.1812,-0.1729,-0.1692,-0.16,-0.1549,-0.1476,-0.1405,-0.1416,-0.1288,-0.129,-0.125,-0.1251,-0.1226,-0.1228,-0.116,-0.1198,-0.1199,-0.1199,-0.1199,0,-0.2379,-0.2314,-0.221,-0.2159,-0.2082,-0.2011,-0.1935,-0.1877,-0.1798,-0.173,-0.1676,-0.1612,-0.1524,-0.1447,-0.139,-0.1294,-0.1273,-0.1236,-0.1221,-0.124,-0.1244,-0.1206,-0.1207,-0.1196,-0.1197,-0.1197,-0.1198,0,-0.2381,-0.231,-0.2215,-0.2106,-0.2076,-0.2024,-0.1927,-0.1872,-0.1812,-0.1726,-0.1701,-0.1606,-0.1511,-0.1433,-0.1309,-0.127,-0.1169,-0.1154,-0.12,-0.1192,-0.1155,-0.1158,-0.1059,-0.1039,-0.1094,-0.1093,-0.1093,0,-0.2361,-0.2309,-0.2193,-0.2144,-0.2092,-0.2015,-0.1958,-0.1883,-0.1826,-0.1715,-0.1671,-0.1573,-0.1491,-0.1341,-0.1257,-0.1159,-0.1139,-0.111,-0.1124,-0.1141,-0.1133,-0.1136,-0.1127,-0.1109,-0.1109,-0.1109,-0.1109,0,-0.233,-0.2294,-0.2218,-0.2125,-0.206,-0.1983,-0.1905,-0.1867,-0.1775,-0.1712,-0.1615,-0.1551,-0.1421,-0.1322,-0.1213,-0.1152,-0.1112,-0.1105,-0.1089,-0.1107,-0.1134,-0.1114,-0.1194,-0.1108,-0.1108,-0.1108,-0.1108,-0.1108,-0.2317,-0.2266,-0.2174,-0.2088,-0.202,-0.1946,-0.1886,-0.1817,-0.1736,-0.1626,-0.1585,-0.1483,-0.1385,-0.1236,-0.1174,-0.1089,-0.1084,-0.1064,-0.1058,-0.1054,-0.1053,-0.1149,-0.1069,-0.1069,-0.1069,-0.1069,-0.1069,0,-0.228,-0.2217,-0.2138,-0.2029,-0.1958,-0.1928,-0.1836,-0.1778,-0.169,-0.1604,-0.1522,-0.1406,-0.1306,-0.1212,-0.1106,-0.1055,-0.1034,-0.103,-0.1032,-0.1017,-0.1066,-0.1088,-0.1049,-0.1049,-0.1049,-0.1049,-0.1049,-0.1049,-0.2253,-0.2163,-0.2115,-0.1987,-0.1922,-0.1825,-0.1774,-0.1702,-0.1632,-0.1505,-0.1422,-0.1362,-0.1269,-0.1154,-0.1059,-0.1033,-0.0994,-0.0994,-0.0963,-0.1011,-0.1014,-0.1017,-0.1037,-0.0988,-0.0988,-0.092,-0.0919,-0.0919]}]]